| time (UTC) | temp F | wind direction | speed knots | gust knots | rain 1hr in | rain 24hr in | rain mn in | humidity % | barometer mb |
| 20260504204625 | 69 | 231 | 1.7 | 2.6 | 0.00 | 0.00 | 0.00 | 36 | 1006.7 |
| 20260504203622 | 70 | 332 | 1.7 | 1.7 | 0.00 | 0.00 | 0.00 | 35 | 1006.9 |
| 20260504202619 | 69 | 198 | 2.6 | 2.6 | 0.00 | 0.00 | 0.00 | 35 | 1006.5 |
| 20260504201619 | 69 | 6 | 0.9 | 2.6 | 0.00 | 0.00 | 0.00 | 36 | 1006.7 |
| 20260504200614 | 69 | 309 | 1.7 | 2.6 | 0.00 | 0.00 | 0.00 | 35 | 1006.9 |
| 20260504195612 | 71 | 187 | 4.3 | 5.2 | 0.00 | 0.00 | 0.00 | 34 | 1006.5 |
| 20260504194611 | 69 | 285 | 1.7 | 1.7 | 0.00 | 0.00 | 0.00 | 33 | 1006.6 |
| 20260504193609 | 72 | 130 | 1.7 | 2.6 | 0.00 | 0.00 | 0.00 | 32 | 1006.7 |
| 20260504192606 | 71 | 217 | 2.6 | 2.6 | 0.00 | 0.00 | 0.00 | 33 | 1006.8 |
| 20260504191601 | 70 | 203 | 2.6 | 3.5 | 0.00 | 0.00 | 0.00 | 33 | 1006.7 |
| 20260504190559 | 71 | 202 | 4.3 | 5.2 | 0.00 | 0.00 | 0.00 | 33 | 1006.8 |
| 20260504185559 | 70 | 260 | 0.9 | 1.7 | 0.00 | 0.00 | 0.00 | 34 | 1007.0 |
| 20260504184556 | 70 | 256 | 2.6 | 3.5 | 0.00 | 0.00 | 0.00 | 36 | 1007.1 |
| 20260504183555 | 70 | 259 | 1.7 | 1.7 | 0.00 | 0.00 | 0.00 | 34 | 1007.3 |
| 20260504182555 | 71 | 235 | 2.6 | 2.6 | 0.00 | 0.00 | 0.00 | 33 | 1007.4 |
| 20260504181555 | 70 | 351 | 2.6 | 3.5 | 0.00 | 0.00 | 0.00 | 34 | 1007.3 |
| 20260504180552 | 69 | 205 | 7.0 | 7.8 | 0.00 | 0.00 | 0.00 | 32 | 1007.4 |
| 20260504175548 | 69 | 212 | 2.6 | 3.5 | 0.00 | 0.00 | 0.00 | 32 | 1007.3 |
| 20260504174548 | 69 | 16 | 3.5 | 7.8 | 0.00 | 0.00 | 0.00 | 32 | 1007.4 |
| 20260504173547 | 70 | 203 | 5.2 | 7.0 | 0.00 | 0.00 | 0.00 | 33 | 1007.5 |
| 20260504172547 | 68 | 287 | 0.0 | 0.0 | 0.00 | 0.00 | 0.00 | 34 | 1007.7 |
| 20260504171546 | 68 | 212 | 1.7 | 1.7 | 0.00 | 0.00 | 0.00 | 35 | 1007.9 |
| 20260504170545 | 69 | 219 | 0.9 | 1.7 | 0.00 | 0.00 | 0.00 | 33 | 1007.6 |
| 20260504150519 | 63 | 248 | 0.9 | 0.9 | 0.00 | 0.00 | 0.00 | 41 | 1009.3 |
| 20260504140504 | 61 | 295 | 1.7 | 2.6 | 0.00 | 0.00 | 0.00 | 42 | 1009.3 |
| 20260504130458 | 56 | 218 | 1.7 | 1.7 | 0.00 | 0.00 | 0.00 | 53 | 1009.9 |
| 20260504110432 | 41 | 260 | 0.0 | 0.0 | 0.00 | 0.00 | 0.00 | 81 | 1010.3 |
| 20260504100418 | 38 | 285 | 0.0 | 0.0 | 0.00 | 0.00 | 0.00 | 84 | 1010.3 |
| 20260504081354 | 42 | 285 | 0.0 | 0.0 | 0.00 | 0.00 | 0.00 | 73 | 1010.0 |
| 20260504080353 | 42 | 285 | 0.0 | 0.0 | 0.00 | 0.00 | 0.00 | 76 | 1009.9 |
| 20260504070344 | 42 | 285 | 0.0 | 0.0 | 0.00 | 0.00 | 0.00 | 74 | 1009.6 |
| 20260504050317 | 40 | 285 | 0.0 | 0.0 | 0.00 | 0.00 | 0.00 | 80 | 1009.9 |
| 20260504045314 | 39 | 285 | 0.0 | 0.0 | 0.00 | 0.00 | 0.00 | 79 | 1009.9 |
| 20260504044314 | 39 | 285 | 0.0 | 0.0 | 0.00 | 0.00 | 0.00 | 77 | 1010.1 |
| 20260504043314 | 39 | 285 | 0.0 | 0.0 | 0.00 | 0.00 | 0.00 | 80 | 1010.1 |
| 20260504042314 | 38 | 285 | 0.0 | 0.0 | 0.00 | 0.00 | 0.00 | 79 | 1010.1 |
| 20260504041312 | 37 | 285 | 0.0 | 0.0 | 0.00 | 0.00 | 0.00 | 78 | 1010.2 |
| 20260504040312 | 36 | 285 | 0.0 | 0.0 | 0.00 | 0.00 | 0.00 | 76 | 1009.9 |
| 20260504035311 | 36 | 285 | 0.0 | 0.0 | 0.00 | 0.00 | 0.00 | 81 | 1010.0 |
| 20260504034306 | 36 | 285 | 0.0 | 0.0 | 0.00 | 0.00 | 0.00 | 77 | 1009.8 |
| 20260504033301 | 36 | 285 | 0.0 | 0.0 | 0.00 | 0.00 | 0.00 | 82 | 1009.7 |
| 20260504032300 | 36 | 285 | 0.0 | 0.0 | 0.00 | 0.00 | 0.00 | 83 | 1009.6 |
| 20260504031300 | 35 | 285 | 0.0 | 0.0 | 0.00 | 0.00 | 0.00 | 82 | 1009.5 |
| 20260504030259 | 35 | 285 | 0.0 | 0.0 | 0.00 | 0.00 | 0.00 | 80 | 1009.6 |
| 20260504025259 | 36 | 285 | 0.0 | 0.0 | 0.00 | 0.00 | 0.00 | 80 | 1009.5 |
| 20260504024258 | 36 | 284 | 0.0 | 0.0 | 0.00 | 0.00 | 0.00 | 79 | 1009.6 |
| 20260504023257 | 36 | 285 | 0.0 | 0.0 | 0.00 | 0.00 | 0.00 | 77 | 1009.6 |
| 20260504022255 | 37 | 285 | 0.0 | 0.0 | 0.00 | 0.00 | 0.00 | 77 | 1009.6 |
| 20260504021250 | 37 | 284 | 0.0 | 0.0 | 0.00 | 0.00 | 0.00 | 76 | 1009.3 |
| 20260504020249 | 38 | 285 | 0.0 | 0.0 | 0.00 | 0.00 | 0.00 | 75 | 1009.3 |
| 20260504015247 | 38 | 285 | 0.0 | 0.0 | 0.00 | 0.00 | 0.00 | 75 | 1009.4 |
| 20260504014246 | 39 | 285 | 0.0 | 0.0 | 0.00 | 0.00 | 0.00 | 75 | 1009.6 |
| 20260504013241 | 39 | 285 | 0.0 | 0.0 | 0.00 | 0.00 | 0.00 | 75 | 1009.3 |
| 20260504012241 | 40 | 285 | 0.0 | 0.0 | 0.00 | 0.00 | 0.00 | 73 | 1009.1 |
| 20260504011240 | 40 | 284 | 0.0 | 0.0 | 0.00 | 0.00 | 0.00 | 75 | 1009.0 |
| 20260504010238 | 41 | 284 | 0.0 | 0.0 | 0.00 | 0.00 | 0.00 | 73 | 1008.8 |
| 20260504005238 | 41 | 285 | 0.0 | 0.0 | 0.00 | 0.00 | 0.00 | 65 | 1008.8 |
| 20260504004238 | 42 | 285 | 0.0 | 0.0 | 0.00 | 0.00 | 0.00 | 66 | 1008.7 |
| 20260504003237 | 43 | 285 | 0.0 | 0.0 | 0.00 | 0.00 | 0.00 | 60 | 1008.6 |
| 20260504002237 | 44 | 285 | 0.0 | 0.0 | 0.00 | 0.00 | 0.00 | 59 | 1008.5 |
| 20260504001237 | 46 | 285 | 0.0 | 0.0 | 0.00 | 0.00 | 0.00 | 58 | 1008.2 |
| 20260504000236 | 46 | 285 | 0.0 | 0.0 | 0.00 | 0.00 | 0.00 | 49 | 1008.3 |
| 20260503235231 | 47 | 285 | 0.0 | 0.0 | 0.00 | 0.00 | 0.00 | 49 | 1008.2 |
| 20260503234227 | 48 | 303 | 0.9 | 0.9 | 0.00 | 0.00 | 0.00 | 46 | 1008.0 |
| 20260503233225 | 48 | 300 | 0.0 | 0.0 | 0.00 | 0.00 | 0.00 | 46 | 1008.1 |
| 20260503232225 | 49 | 297 | 0.0 | 0.0 | 0.00 | 0.00 | 0.00 | 45 | 1008.1 |
| 20260503231220 | 50 | 315 | 1.7 | 1.7 | 0.00 | 0.00 | 0.00 | 45 | 1007.9 |
| 20260503230220 | 50 | 303 | 1.7 | 1.7 | 0.00 | 0.00 | 0.00 | 43 | 1007.9 |
| 20260503225217 | 50 | 324 | 1.7 | 1.7 | 0.00 | 0.00 | 0.00 | 44 | 1007.6 |
| 20260503224212 | 51 | 21 | 0.9 | 1.7 | 0.00 | 0.00 | 0.00 | 43 | 1007.6 |
| 20260503223207 | 50 | 301 | 0.9 | 0.9 | 0.00 | 0.00 | 0.00 | 43 | 1007.4 |
| 20260503222207 | 50 | 326 | 1.7 | 3.5 | 0.00 | 0.00 | 0.00 | 41 | 1007.5 |
| 20260503221202 | 51 | 312 | 0.0 | 0.0 | 0.00 | 0.00 | 0.00 | 42 | 1007.3 |
| 20260503220201 | 50 | 303 | 2.6 | 3.5 | 0.00 | 0.00 | 0.00 | 43 | 1007.3 |
| 20260503215201 | 51 | 335 | 2.6 | 3.5 | 0.00 | 0.00 | 0.00 | 42 | 1007.4 |
| 20260503214201 | 50 | 289 | 1.7 | 3.5 | 0.00 | 0.00 | 0.00 | 41 | 1007.1 |
| 20260503213157 | 50 | 264 | 0.9 | 0.9 | 0.00 | 0.00 | 0.00 | 43 | 1007.3 |
| 20260503212157 | 52 | 276 | 0.9 | 1.7 | 0.00 | 0.00 | 0.00 | 42 | 1007.0 |
| 20260503211155 | 50 | 39 | 1.7 | 2.6 | 0.00 | 0.00 | 0.00 | 41 | 1006.8 |
| 20260503210154 | 50 | 214 | 3.5 | 6.1 | 0.00 | 0.00 | 0.00 | 41 | 1006.9 |